カタログに戻る

FENGYUN 1C DEB

運用中PO
NORAD 31768·DEBRIS·🇨🇳 China

打ち上げ May 10, 1999 から Taiyuan Satellite Launch Center

Loading…

次のパス (今後24時間)

TLE

最新Source: Space-Track

元期: Sep 14, 2026, 06:18 UTC

1 31768U 99025CFT 26257.26255287  .00015145  00000-0  17130-2 0  9999
2 31768  99.0366  10.1742 0023270 191.3931 200.8450 14.86383859  9447

AllMySatでFENGYUN 1C DEBをリアルタイム追跡

Download on the App Store